Zurück zum Katalog

STARLINK-11156

AktivKommunikationVLEO
NORAD 61056·PAYLOAD·🇺🇸 United States

Gestartet Sep 13, 2024 von Vandenberg Space Force Base

Loading…

Nächste Überflüge (nächste 24 Stunden)

TLE

AktuellSource: CelesTrak SupGP

Epoche: Sep 14, 2026, 21:40 UTC

1 61056C 24164G   26257.90326389 -.00051245  00000+0 -42205-3 0  2578
2 61056  53.1564  98.1900 0001135  93.5791 187.1872 15.69739004    14

Verfolge STARLINK-11156 in Echtzeit mit AllMySat

Download on the App Store